Time,TemperatureF,DewpointF,PressureIn,WindDirection,WindDirectionDegrees,WindSpeedMPH,WindSpeedGustMPH,Humidity,HourlyPrecipIn,Conditions,Clouds,dailyrainin,SoftwareType,DateUTC
2013-07-30 00:02:00,67.0,37.0,-100.00,South,179,4.0,8.0,34,-99.99,,,-99.99,,2013-07-30 07:02:00,
2013-07-30 00:13:00,67.0,38.0,-100.00,South,179,4.0,8.0,34,-99.99,,,-99.99,,2013-07-30 07:13:00,
2013-07-30 00:33:00,67.0,38.0,-100.00,SSE,157,6.0,12.0,35,-99.99,,,-99.99,,2013-07-30 07:33:00,
2013-07-30 00:43:00,67.0,38.0,-100.00,SSE,157,6.0,12.0,35,-99.99,,,-99.99,,2013-07-30 07:43:00,
2013-07-30 01:02:00,66.0,37.0,-100.00,NNW,346,2.0,5.0,35,-99.99,,,-99.99,,2013-07-30 08:02:00,
2013-07-30 01:22:00,65.0,40.0,-100.00,SSW,202,3.0,10.0,40,-99.99,,,-99.99,,2013-07-30 08:22:00,
2013-07-30 01:42:00,64.0,40.0,-100.00,SSE,150,1.0,4.0,42,-99.99,,,-99.99,,2013-07-30 08:42:00,
2013-07-30 02:02:00,66.0,39.0,-100.00,South,174,3.0,6.0,37,-99.99,,,-99.99,,2013-07-30 09:02:00,
2013-07-30 02:22:00,67.0,39.0,-100.00,SSE,154,6.0,12.0,36,-99.99,,,-99.99,,2013-07-30 09:22:00,
2013-07-30 02:43:00,66.0,40.0,-100.00,SSE,152,5.0,8.0,37,-99.99,,,-99.99,,2013-07-30 09:43:00,
2013-07-30 02:53:00,62.0,42.0,-100.00,South,184,4.0,5.0,47,-99.99,,,-99.99,,2013-07-30 09:53:00,
2013-07-30 03:02:00,62.0,42.0,-100.00,South,184,4.0,5.0,47,-99.99,,,-99.99,,2013-07-30 10:02:00,
2013-07-30 03:22:00,61.0,40.0,-100.00,ESE,107,2.0,5.0,46,-99.99,,,-99.99,,2013-07-30 10:22:00,
2013-07-30 03:32:00,61.0,40.0,-100.00,ESE,107,2.0,5.0,46,-99.99,,,-99.99,,2013-07-30 10:32:00,
2013-07-30 03:43:00,59.0,42.0,-100.00,ENE,59,1.0,3.0,53,-99.99,,,-99.99,,2013-07-30 10:43:00,
2013-07-30 04:02:00,57.0,43.0,-100.00,SSE,162,2.0,4.0,58,-99.99,,,-99.99,,2013-07-30 11:02:00,
2013-07-30 04:11:00,57.0,43.0,-100.00,SSE,162,2.0,4.0,58,-99.99,,,-99.99,,2013-07-30 11:11:00,
2013-07-30 04:43:00,56.0,41.0,-100.00,North,357,1.0,3.0,57,-99.99,,,-99.99,,2013-07-30 11:43:00,
2013-07-30 04:53:00,56.0,41.0,-100.00,North,357,1.0,3.0,57,-99.99,,,-99.99,,2013-07-30 11:53:00,
2013-07-30 05:33:00,54.0,43.0,-100.00,ESE,103,1.0,2.0,66,-99.99,,,-99.99,,2013-07-30 12:33:00,
2013-07-30 05:42:00,55.0,43.0,-100.00,ENE,75,1.0,4.0,63,-99.99,,,-99.99,,2013-07-30 12:42:00,
2013-07-30 05:53:00,55.0,43.0,-100.00,ENE,75,1.0,4.0,63,-99.99,,,-99.99,,2013-07-30 12:53:00,
2013-07-30 06:01:00,55.0,43.0,-100.00,East,95,2.0,4.0,63,-99.99,,,-99.99,,2013-07-30 13:01:00,
2013-07-30 06:12:00,55.0,40.0,-100.00,East,95,2.0,4.0,57,-99.99,,,-99.99,,2013-07-30 13:12:00,
2013-07-30 06:32:00,52.0,43.0,-100.00,SE,143,1.0,2.0,71,-99.99,,,-99.99,,2013-07-30 13:32:00,
2013-07-30 06:42:00,52.0,43.0,-100.00,SE,143,1.0,2.0,71,-99.99,,,-99.99,,2013-07-30 13:42:00,
2013-07-30 07:12:00,53.0,44.0,-100.00,SSW,193,0.0,2.0,71,-99.99,,,-99.99,,2013-07-30 14:12:00,
2013-07-30 07:21:00,59.0,41.0,-100.00,NW,322,2.0,3.0,50,-99.99,,,-99.99,,2013-07-30 14:21:00,
2013-07-30 07:32:00,58.0,41.0,-100.00,ESE,103,1.0,4.0,53,-99.99,,,-99.99,,2013-07-30 14:32:00,
2013-07-30 07:43:00,58.0,41.0,-100.00,ESE,103,1.0,4.0,53,-99.99,,,-99.99,,2013-07-30 14:43:00,
2013-07-30 08:02:00,59.0,41.0,-100.00,NW,322,2.0,3.0,50,-99.99,,,-99.99,,2013-07-30 15:02:00,
2013-07-30 08:12:00,59.0,41.0,-100.00,NW,322,2.0,3.0,50,-99.99,,,-99.99,,2013-07-30 15:12:00,
2013-07-30 08:43:00,66.0,41.0,-100.00,NW,323,3.0,6.0,41,-99.99,,,-99.99,,2013-07-30 15:43:00,
2013-07-30 09:02:00,67.0,43.0,-100.00,West,278,3.0,7.0,42,-99.99,,,-99.99,,2013-07-30 16:02:00,
2013-07-30 09:12:00,67.0,43.0,-100.00,West,278,3.0,7.0,42,-99.99,,,-99.99,,2013-07-30 16:12:00,
2013-07-30 09:22:00,69.0,43.0,-100.00,West,264,3.0,5.0,39,-99.99,,,-99.99,,2013-07-30 16:22:00,
2013-07-30 09:33:00,69.0,43.0,-100.00,West,264,3.0,5.0,39,-99.99,,,-99.99,,2013-07-30 16:33:00,
2013-07-30 09:43:00,73.0,43.0,-100.00,SW,226,1.0,3.0,34,-99.99,,,-99.99,,2013-07-30 16:43:00,
2013-07-30 09:52:00,73.0,43.0,-100.00,West,270,3.0,7.0,34,-99.99,,,-99.99,,2013-07-30 16:52:00,
2013-07-30 10:02:00,75.0,43.0,-100.00,West,270,3.0,7.0,33,-99.99,,,-99.99,,2013-07-30 17:02:00,
2013-07-30 10:22:00,76.0,40.0,-100.00,West,278,4.0,9.0,27,-99.99,,,-99.99,,2013-07-30 17:22:00,
2013-07-30 10:32:00,76.0,40.0,-100.00,West,278,4.0,9.0,27,-99.99,,,-99.99,,2013-07-30 17:32:00,
2013-07-30 10:43:00,79.0,36.0,-100.00,SE,133,3.0,7.0,21,-99.99,,,-99.99,,2013-07-30 17:43:00,
2013-07-30 10:53:00,79.0,36.0,-100.00,SE,133,3.0,7.0,21,-99.99,,,-99.99,,2013-07-30 17:53:00,
2013-07-30 11:12:00,80.0,32.0,-100.00,South,174,6.0,13.0,18,-99.99,,,-99.99,,2013-07-30 18:12:00,
2013-07-30 11:32:00,80.0,28.0,-100.00,SSE,161,6.0,12.0,15,-99.99,,,-99.99,,2013-07-30 18:32:00,
2013-07-30 11:42:00,80.0,28.0,-100.00,SSE,161,6.0,12.0,15,-99.99,,,-99.99,,2013-07-30 18:42:00,
2013-07-30 11:52:00,82.0,30.0,-100.00,SSE,168,5.0,10.0,16,-99.99,,,-99.99,,2013-07-30 18:52:00,
2013-07-30 12:02:00,82.0,32.0,-100.00,SSE,168,6.0,15.0,16,-99.99,,,-99.99,,2013-07-30 19:02:00,
2013-07-30 12:12:00,82.0,32.0,-100.00,SSE,168,6.0,15.0,16,-99.99,,,-99.99,,2013-07-30 19:12:00,
2013-07-30 12:33:00,84.0,30.0,-100.00,SSW,212,5.0,15.0,14,-99.99,,,-99.99,,2013-07-30 19:33:00,
2013-07-30 12:43:00,84.0,32.0,-100.00,WSW,258,5.0,10.0,15,-99.99,,,-99.99,,2013-07-30 19:43:00,
2013-07-30 12:52:00,84.0,32.0,-100.00,WSW,258,5.0,10.0,15,-99.99,,,-99.99,,2013-07-30 19:52:00,
2013-07-30 13:02:00,84.0,32.0,-100.00,SW,215,5.0,13.0,15,-99.99,,,-99.99,,2013-07-30 20:02:00,
2013-07-30 13:12:00,86.0,30.0,-100.00,SW,215,5.0,13.0,14,-99.99,,,-99.99,,2013-07-30 20:12:00,
2013-07-30 13:32:00,85.0,28.0,-100.00,South,169,8.0,19.0,13,-99.99,,,-99.99,,2013-07-30 20:32:00,
2013-07-30 13:43:00,85.0,28.0,-100.00,South,169,8.0,19.0,13,-99.99,,,-99.99,,2013-07-30 20:43:00,
2013-07-30 13:52:00,85.0,28.0,-100.00,SSW,199,7.0,17.0,13,-99.99,,,-99.99,,2013-07-30 20:52:00,
2013-07-30 14:12:00,87.0,28.0,-100.00,SE,143,4.0,14.0,12,-99.99,,,-99.99,,2013-07-30 21:12:00,
2013-07-30 14:22:00,87.0,28.0,-100.00,SE,143,4.0,14.0,12,-99.99,,,-99.99,,2013-07-30 21:22:00,
2013-07-30 14:42:00,86.0,33.0,-100.00,WSW,256,10.0,18.0,15,-99.99,,,-99.99,,2013-07-30 21:42:00,
2013-07-30 14:53:00,86.0,33.0,-100.00,West,270,8.0,18.0,15,-99.99,,,-99.99,,2013-07-30 21:53:00,
2013-07-30 15:02:00,86.0,33.0,-100.00,West,270,8.0,18.0,15,-99.99,,,-99.99,,2013-07-30 22:02:00,
2013-07-30 15:11:00,86.0,33.0,-100.00,West,268,9.0,18.0,15,-99.99,,,-99.99,,2013-07-30 22:11:00,
2013-07-30 15:22:00,86.0,32.0,-100.00,West,268,9.0,18.0,14,-99.99,,,-99.99,,2013-07-30 22:22:00,
2013-07-30 15:32:00,86.0,33.0,-100.00,WNW,287,11.0,20.0,15,-99.99,,,-99.99,,2013-07-30 22:32:00,
2013-07-30 15:43:00,87.0,33.0,-100.00,West,278,11.0,17.0,15,-99.99,,,-99.99,,2013-07-30 22:43:00,
2013-07-30 15:52:00,87.0,33.0,-100.00,West,278,11.0,17.0,15,-99.99,,,-99.99,,2013-07-30 22:52:00,
2013-07-30 16:02:00,87.0,33.0,-100.00,West,278,11.0,17.0,15,-99.99,,,-99.99,,2013-07-30 23:02:00,
2013-07-30 16:12:00,86.0,34.0,-100.00,West,278,11.0,17.0,15,-99.99,,,-99.99,,2013-07-30 23:12:00,
2013-07-30 16:22:00,86.0,34.0,-100.00,NW,306,13.0,20.0,15,-99.99,,,-99.99,,2013-07-30 23:22:00,
2013-07-30 16:32:00,86.0,35.0,-100.00,NW,316,12.0,18.0,16,-99.99,,,-99.99,,2013-07-30 23:32:00,
2013-07-30 16:42:00,86.0,35.0,-100.00,NW,316,12.0,18.0,16,-99.99,,,-99.99,,2013-07-30 23:42:00,
2013-07-30 16:53:00,88.0,34.0,-100.00,South,191,5.0,10.0,15,-99.99,,,-99.99,,2013-07-30 23:53:00,
2013-07-30 17:02:00,88.0,34.0,-100.00,South,191,5.0,10.0,15,-99.99,,,-99.99,,2013-07-31 00:02:00,
2013-07-30 17:12:00,88.0,34.0,-100.00,SW,226,6.0,14.0,15,-99.99,,,-99.99,,2013-07-31 00:12:00,
2013-07-30 17:22:00,87.0,37.0,-100.00,SW,226,6.0,14.0,17,-99.99,,,-99.99,,2013-07-31 00:22:00,
2013-07-30 17:32:00,86.0,39.0,-100.00,West,263,13.0,28.0,19,-99.99,,,-99.99,,2013-07-31 00:32:00,
2013-07-30 17:43:00,86.0,39.0,-100.00,West,263,13.0,28.0,19,-99.99,,,-99.99,,2013-07-31 00:43:00,
2013-07-30 18:02:00,86.0,40.0,-100.00,WSW,237,10.0,18.0,19,-99.99,,,-99.99,,2013-07-31 01:02:00,
2013-07-30 18:22:00,86.0,39.0,-100.00,WSW,239,8.0,16.0,19,-99.99,,,-99.99,,2013-07-31 01:22:00,
2013-07-30 18:42:00,84.0,41.0,-100.00,West,275,6.0,14.0,21,-99.99,,,-99.99,,2013-07-31 01:42:00,
2013-07-30 18:52:00,84.0,41.0,-100.00,West,275,6.0,14.0,21,-99.99,,,-99.99,,2013-07-31 01:52:00,
2013-07-30 19:02:00,83.0,40.0,-100.00,WNW,285,7.0,16.0,22,-99.99,,,-99.99,,2013-07-31 02:02:00,
2013-07-30 19:12:00,83.0,40.0,-100.00,WNW,285,7.0,16.0,22,-99.99,,,-99.99,,2013-07-31 02:12:00,
2013-07-30 19:21:00,81.0,40.0,-100.00,NW,319,10.0,16.0,23,-99.99,,,-99.99,,2013-07-31 02:21:00,
2013-07-30 19:32:00,82.0,39.0,-100.00,NW,311,10.0,18.0,22,-99.99,,,-99.99,,2013-07-31 02:32:00,
2013-07-30 19:42:00,81.0,40.0,-100.00,NW,311,9.0,15.0,23,-99.99,,,-99.99,,2013-07-31 02:42:00,
2013-07-30 20:02:00,81.0,40.0,-100.00,NW,319,10.0,16.0,23,-99.99,,,-99.99,,2013-07-31 03:02:00,
2013-07-30 20:12:00,81.0,40.0,-100.00,NW,319,10.0,16.0,23,-99.99,,,-99.99,,2013-07-31 03:12:00,
2013-07-30 21:02:00,75.0,41.0,-100.00,West,278,5.0,13.0,30,-99.99,,,-99.99,,2013-07-31 04:02:00,
2013-07-30 21:22:00,75.0,41.0,-100.00,SE,130,2.0,10.0,29,-99.99,,,-99.99,,2013-07-31 04:22:00,
2013-07-30 21:32:00,75.0,41.0,-100.00,SE,130,2.0,10.0,29,-99.99,,,-99.99,,2013-07-31 04:32:00,
2013-07-30 21:42:00,75.0,41.0,-100.00,SE,130,2.0,10.0,29,-99.99,,,-99.99,,2013-07-31 04:42:00,
2013-07-30 21:52:00,72.0,42.0,-100.00,SSW,202,4.0,7.0,34,-99.99,,,-99.99,,2013-07-31 04:52:00,
2013-07-30 22:02:00,72.0,42.0,-100.00,SSW,202,4.0,7.0,34,-99.99,,,-99.99,,2013-07-31 05:02:00,
2013-07-30 22:11:00,70.0,42.0,-100.00,SSW,202,4.0,7.0,36,-99.99,,,-99.99,,2013-07-31 05:11:00,
2013-07-30 22:22:00,70.0,42.0,-100.00,SSW,202,4.0,7.0,36,-99.99,,,-99.99,,2013-07-31 05:22:00,
2013-07-30 22:32:00,70.0,40.0,-100.00,NNE,31,4.0,5.0,34,-99.99,,,-99.99,,2013-07-31 05:32:00,
2013-07-30 22:42:00,70.0,40.0,-100.00,NNE,31,4.0,5.0,34,-99.99,,,-99.99,,2013-07-31 05:42:00,
2013-07-30 22:52:00,70.0,40.0,-100.00,NNE,31,4.0,5.0,34,-99.99,,,-99.99,,2013-07-31 05:52:00,
2013-07-30 23:02:00,71.0,42.0,-100.00,ENE,66,1.0,3.0,34,-99.99,,,-99.99,,2013-07-31 06:02:00,
2013-07-30 23:11:00,71.0,42.0,-100.00,ENE,66,1.0,3.0,34,-99.99,,,-99.99,,2013-07-31 06:11:00,
2013-07-30 23:42:00,73.0,40.0,-100.00,NE,56,3.0,7.0,31,-99.99,,,-99.99,,2013-07-31 06:42:00,
2013-07-30 23:52:00,73.0,40.0,-100.00,NE,56,3.0,7.0,31,-99.99,,,-99.99,,2013-07-31 06:52:00,